Location: Unspecified
(48.8656°N, 0.0000°E)
Time: 01:33:15
(UTC+00:00)

Transit 2A Rocket - Pass Details

Date: 20 June 2019
Orbit: 588 x 915 km, 66.7° (Epoch: 22 July)

Event Time Altitude Azimuth Distance (km) Brightness Sun altitude
Rises 17:08:42 0° 324° (NW) 3,413 8.9 26.0°
Reaches altitude 10° 17:11:49 10° 339° (NNW) 2,419 8.1 25.4°
Maximum altitude 17:16:07 22° 30° (NNE) 1,634 6.7 24.7°
Drops below altitude 10° 17:20:07 10° 81° (E) 2,239 7.0 24.1°
Sets 17:22:52 0° 97° (E) 3,096 7.6 23.6°
